Time,TemperatureF,DewpointF,PressureIn,WindDirection,WindDirectionDegrees,WindSpeedMPH,WindSpeedGustMPH,Humidity,HourlyPrecipIn,Conditions,Clouds,dailyrainin,SoftwareType,DateUTC
2013-05-05 00:09:00,53.9,43.0,30.78,West,274,0.0,-999.0,68,-99.99,,,0.00,weatherlink.com 1.10,2013-05-05 05:09:00,
2013-05-05 00:19:00,53.2,43.0,30.78,West,274,0.0,-999.0,68,-99.99,,,0.00,weatherlink.com 1.10,2013-05-05 05:19:00,
2013-05-05 00:34:00,52.6,43.0,30.78,West,274,0.0,-999.0,69,-99.99,,,0.00,weatherlink.com 1.10,2013-05-05 05:34:00,
2013-05-05 00:49:00,52.1,43.0,30.78,West,274,0.0,-999.0,72,-99.99,,,0.00,weatherlink.com 1.10,2013-05-05 05:49:00,
2013-05-05 01:10:00,51.5,43.0,30.78,West,274,0.0,-999.0,74,-99.99,,,0.00,weatherlink.com 1.10,2013-05-05 06:10:00,
2013-05-05 01:20:00,50.8,43.0,30.79,West,274,0.0,-999.0,74,-99.99,,,0.00,weatherlink.com 1.10,2013-05-05 06:20:00,
2013-05-05 01:35:00,51.7,43.0,30.79,West,275,3.0,-999.0,71,-99.99,,,0.00,weatherlink.com 1.10,2013-05-05 06:35:00,
2013-05-05 01:50:00,54.0,42.0,30.79,West,280,1.0,-999.0,64,-99.99,,,0.00,weatherlink.com 1.10,2013-05-05 06:50:00,
2013-05-05 02:10:00,54.5,41.0,30.79,West,280,0.0,-999.0,61,-99.99,,,0.00,weatherlink.com 1.10,2013-05-05 07:10:00,
2013-05-05 02:20:00,54.1,41.0,30.80,West,280,0.0,-999.0,61,-99.99,,,0.00,weatherlink.com 1.10,2013-05-05 07:20:00,
2013-05-05 02:35:00,52.7,40.0,30.80,West,280,0.0,-999.0,63,-99.99,,,0.00,weatherlink.com 1.10,2013-05-05 07:35:00,
2013-05-05 02:50:00,51.5,41.0,30.80,West,280,0.0,-999.0,68,-99.99,,,0.00,weatherlink.com 1.10,2013-05-05 07:50:00,
2013-05-05 03:10:00,49.9,41.0,30.80,West,280,0.0,-999.0,72,-99.99,,,0.00,weatherlink.com 1.10,2013-05-05 08:10:00,
2013-05-05 03:20:00,49.2,41.0,30.80,West,280,0.0,-999.0,73,-99.99,,,0.00,weatherlink.com 1.10,2013-05-05 08:20:00,
2013-05-05 03:35:00,48.3,40.0,30.80,West,280,0.0,-999.0,74,-99.99,,,0.00,weatherlink.com 1.10,2013-05-05 08:35:00,
2013-05-05 03:50:00,47.1,40.0,30.80,West,280,0.0,-999.0,77,-99.99,,,0.00,weatherlink.com 1.10,2013-05-05 08:50:00,
2013-05-05 04:10:00,46.5,40.0,30.81,West,280,0.0,-999.0,79,-99.99,,,0.00,weatherlink.com 1.10,2013-05-05 09:10:00,
2013-05-05 04:20:00,46.2,40.0,30.82,West,280,0.0,-999.0,78,-99.99,,,0.00,weatherlink.com 1.10,2013-05-05 09:20:00,
2013-05-05 04:35:00,45.7,40.0,30.82,West,280,0.0,-999.0,79,-99.99,,,0.00,weatherlink.com 1.10,2013-05-05 09:35:00,
2013-05-05 04:50:00,45.0,39.0,30.82,West,280,0.0,-999.0,79,-99.99,,,0.00,weatherlink.com 1.10,2013-05-05 09:50:00,
2013-05-05 05:10:00,44.4,39.0,30.83,West,280,0.0,-999.0,80,-99.99,,,0.00,weatherlink.com 1.10,2013-05-05 10:10:00,
2013-05-05 05:20:00,43.7,38.0,30.83,West,280,0.0,-999.0,80,-99.99,,,0.00,weatherlink.com 1.10,2013-05-05 10:20:00,
2013-05-05 05:35:00,43.1,37.0,30.84,West,280,0.0,-999.0,80,-99.99,,,0.00,weatherlink.com 1.10,2013-05-05 10:35:00,
2013-05-05 05:50:00,42.4,37.0,30.84,West,280,0.0,-999.0,81,-99.99,,,0.00,weatherlink.com 1.10,2013-05-05 10:50:00,
2013-05-05 06:10:00,41.9,37.0,30.85,West,280,0.0,-999.0,82,-99.99,,,0.00,weatherlink.com 1.10,2013-05-05 11:10:00,
2013-05-05 06:20:00,41.4,37.0,30.86,West,280,0.0,-999.0,83,-99.99,,,0.00,weatherlink.com 1.10,2013-05-05 11:20:00,
2013-05-05 06:35:00,41.2,36.0,30.86,West,280,0.0,-999.0,83,-99.99,,,0.00,weatherlink.com 1.10,2013-05-05 11:35:00,
2013-05-05 06:50:00,41.4,37.0,30.87,West,280,0.0,-999.0,85,-99.99,,,0.00,weatherlink.com 1.10,2013-05-05 11:50:00,
2013-05-05 07:10:00,42.7,39.0,30.88,WNW,282,0.0,-999.0,86,-99.99,,,0.00,weatherlink.com 1.10,2013-05-05 12:10:00,
2013-05-05 07:20:00,45.4,41.0,30.89,WNW,282,1.0,-999.0,83,-99.99,,,0.00,weatherlink.com 1.10,2013-05-05 12:20:00,
2013-05-05 07:35:00,47.5,42.0,30.89,NW,306,1.0,-999.0,80,-99.99,,,0.00,weatherlink.com 1.10,2013-05-05 12:35:00,
2013-05-05 07:50:00,49.2,42.0,30.90,NW,309,1.0,-999.0,76,-99.99,,,0.00,weatherlink.com 1.10,2013-05-05 12:50:00,
2013-05-05 08:11:00,50.3,42.0,30.91,NW,306,2.0,-999.0,73,-99.99,,,0.00,weatherlink.com 1.10,2013-05-05 13:11:00,
2013-05-05 08:20:00,51.7,43.0,30.92,NW,313,3.0,-999.0,72,-99.99,,,0.00,weatherlink.com 1.10,2013-05-05 13:20:00,
2013-05-05 08:35:00,53.2,43.0,30.91,NW,306,4.0,-999.0,68,-99.99,,,0.00,weatherlink.com 1.10,2013-05-05 13:35:00,
2013-05-05 08:50:00,54.0,42.0,30.92,NW,309,9.0,-999.0,63,-99.99,,,0.00,weatherlink.com 1.10,2013-05-05 13:50:00,
2013-05-05 09:10:00,54.6,42.0,30.92,NW,313,1.0,-999.0,62,-99.99,,,0.00,weatherlink.com 1.10,2013-05-05 14:10:00,
2013-05-05 09:20:00,55.5,42.0,30.92,NW,324,4.0,-999.0,61,-99.99,,,0.00,weatherlink.com 1.10,2013-05-05 14:20:00,
2013-05-05 09:35:00,56.0,43.0,30.92,NNW,331,3.0,-999.0,62,-99.99,,,0.00,weatherlink.com 1.10,2013-05-05 14:35:00,
2013-05-05 09:50:00,56.4,44.0,30.93,NW,309,5.0,-999.0,63,-99.99,,,0.00,weatherlink.com 1.10,2013-05-05 14:50:00,
2013-05-05 10:11:00,57.3,43.0,30.93,NW,308,5.0,-999.0,59,-99.99,,,0.00,weatherlink.com 1.10,2013-05-05 15:11:00,
2013-05-05 10:20:00,58.1,43.0,30.93,NW,304,8.0,-999.0,58,-99.99,,,0.00,weatherlink.com 1.10,2013-05-05 15:20:00,
2013-05-05 10:35:00,58.3,43.0,30.93,NW,315,6.0,-999.0,58,-99.99,,,0.00,weatherlink.com 1.10,2013-05-05 15:35:00,
2013-05-05 10:50:00,59.5,44.0,30.94,NW,310,8.0,-999.0,56,-99.99,,,0.00,weatherlink.com 1.10,2013-05-05 15:50:00,
2013-05-05 11:11:00,60.1,43.0,30.94,NW,322,3.0,-999.0,54,-99.99,,,0.00,weatherlink.com 1.10,2013-05-05 16:11:00,
2013-05-05 11:21:00,60.2,44.0,30.93,NW,306,4.0,-999.0,55,-99.99,,,0.00,weatherlink.com 1.10,2013-05-05 16:21:00,
2013-05-05 11:36:00,61.6,44.0,30.93,NW,317,4.0,-999.0,53,-99.99,,,0.00,weatherlink.com 1.10,2013-05-05 16:36:00,
2013-05-05 11:51:00,61.4,43.0,30.93,North,5,5.0,-999.0,51,-99.99,,,0.00,weatherlink.com 1.10,2013-05-05 16:51:00,
2013-05-05 12:11:00,62.4,44.0,30.93,North,5,4.0,-999.0,52,-99.99,,,0.00,weatherlink.com 1.10,2013-05-05 17:11:00,
2013-05-05 12:21:00,62.3,43.0,30.92,NW,315,3.0,-999.0,50,-99.99,,,0.00,weatherlink.com 1.10,2013-05-05 17:21:00,
2013-05-05 12:36:00,63.4,45.0,30.92,NNW,331,4.0,-999.0,51,-99.99,,,0.00,weatherlink.com 1.10,2013-05-05 17:36:00,
2013-05-05 12:51:00,63.9,44.0,30.91,NW,320,6.0,-999.0,49,-99.99,,,0.00,weatherlink.com 1.10,2013-05-05 17:51:00,
2013-05-05 13:11:00,64.5,44.0,30.90,NW,307,3.0,-999.0,48,-99.99,,,0.00,weatherlink.com 1.10,2013-05-05 18:11:00,
2013-05-05 13:20:00,65.4,44.0,30.90,North,349,2.0,-999.0,47,-99.99,,,0.00,weatherlink.com 1.10,2013-05-05 18:20:00,
2013-05-05 13:35:00,65.5,45.0,30.90,NW,311,5.0,-999.0,47,-99.99,,,0.00,weatherlink.com 1.10,2013-05-05 18:35:00,
2013-05-05 13:50:00,66.2,45.0,30.89,SSW,205,5.0,-999.0,46,-99.99,,,0.00,weatherlink.com 1.10,2013-05-05 18:50:00,
2013-05-05 14:11:00,66.3,45.0,30.88,NW,316,2.0,-999.0,46,-99.99,,,0.00,weatherlink.com 1.10,2013-05-05 19:11:00,
2013-05-05 14:20:00,67.9,46.0,30.88,North,360,5.0,-999.0,46,-99.99,,,0.00,weatherlink.com 1.10,2013-05-05 19:20:00,
2013-05-05 14:36:00,67.2,45.0,30.87,NW,315,5.0,-999.0,45,-99.99,,,0.00,weatherlink.com 1.10,2013-05-05 19:36:00,
2013-05-05 14:51:00,67.9,46.0,30.86,NW,318,1.0,-999.0,45,-99.99,,,0.00,weatherlink.com 1.10,2013-05-05 19:51:00,
2013-05-05 15:11:00,69.1,46.0,30.86,NW,322,3.0,-999.0,44,-99.99,,,0.00,weatherlink.com 1.10,2013-05-05 20:11:00,
2013-05-05 15:21:00,69.2,46.0,30.85,NW,309,4.0,-999.0,43,-99.99,,,0.00,weatherlink.com 1.10,2013-05-05 20:21:00,
2013-05-05 15:36:00,69.6,46.0,30.85,NW,322,5.0,-999.0,43,-99.99,,,0.00,weatherlink.com 1.10,2013-05-05 20:36:00,
2013-05-05 15:51:00,69.5,45.0,30.84,NNW,328,5.0,-999.0,42,-99.99,,,0.00,weatherlink.com 1.10,2013-05-05 20:51:00,
2013-05-05 16:11:00,69.6,47.0,30.83,SSE,147,1.0,-999.0,44,-99.99,,,0.00,weatherlink.com 1.10,2013-05-05 21:11:00,
2013-05-05 16:21:00,70.6,46.0,30.83,NW,315,7.0,-999.0,41,-99.99,,,0.00,weatherlink.com 1.10,2013-05-05 21:21:00,
2013-05-05 16:36:00,70.2,45.0,30.82,NNW,343,3.0,-999.0,40,-99.99,,,0.00,weatherlink.com 1.10,2013-05-05 21:36:00,
2013-05-05 16:51:00,70.4,45.0,30.82,NW,315,2.0,-999.0,40,-99.99,,,0.00,weatherlink.com 1.10,2013-05-05 21:51:00,
2013-05-05 17:11:00,71.0,45.0,30.82,WNW,303,2.0,-999.0,40,-99.99,,,0.00,weatherlink.com 1.10,2013-05-05 22:11:00,
2013-05-05 17:21:00,71.1,45.0,30.82,NNW,332,2.0,-999.0,40,-99.99,,,0.00,weatherlink.com 1.10,2013-05-05 22:21:00,
2013-05-05 17:36:00,71.0,45.0,30.82,WNW,295,1.0,-999.0,40,-99.99,,,0.00,weatherlink.com 1.10,2013-05-05 22:36:00,
2013-05-05 17:51:00,70.8,45.0,30.82,NW,311,3.0,-999.0,40,-99.99,,,0.00,weatherlink.com 1.10,2013-05-05 22:51:00,
2013-05-05 18:11:00,70.0,45.0,30.82,NW,313,5.0,-999.0,41,-99.99,,,0.00,weatherlink.com 1.10,2013-05-05 23:11:00,
2013-05-05 18:21:00,69.4,45.0,30.82,NW,315,0.0,-999.0,42,-99.99,,,0.00,weatherlink.com 1.10,2013-05-05 23:21:00,
2013-05-05 18:36:00,69.3,45.0,30.82,NW,325,3.0,-999.0,42,-99.99,,,0.00,weatherlink.com 1.10,2013-05-05 23:36:00,
2013-05-05 18:51:00,68.9,45.0,30.83,NW,309,3.0,-999.0,43,-99.99,,,0.00,weatherlink.com 1.10,2013-05-05 23:51:00,
2013-05-05 19:11:00,68.3,45.0,30.83,NW,313,3.0,-999.0,44,-99.99,,,0.00,weatherlink.com 1.10,2013-05-06 00:11:00,
2013-05-05 19:21:00,67.7,45.0,30.83,WNW,294,2.0,-999.0,45,-99.99,,,0.00,weatherlink.com 1.10,2013-05-06 00:21:00,
2013-05-05 19:36:00,67.1,45.0,30.84,WNW,294,0.0,-999.0,45,-99.99,,,0.00,weatherlink.com 1.10,2013-05-06 00:36:00,
2013-05-05 19:51:00,66.2,45.0,30.84,WNW,296,0.0,-999.0,47,-99.99,,,0.00,weatherlink.com 1.10,2013-05-06 00:51:00,
2013-05-05 20:11:00,65.3,45.0,30.84,WNW,292,0.0,-999.0,48,-99.99,,,0.00,weatherlink.com 1.10,2013-05-06 01:11:00,
2013-05-05 20:21:00,64.0,45.0,30.85,WNW,292,0.0,-999.0,51,-99.99,,,0.00,weatherlink.com 1.10,2013-05-06 01:21:00,
2013-05-05 20:36:00,62.3,45.0,30.85,WNW,292,0.0,-999.0,53,-99.99,,,0.00,weatherlink.com 1.10,2013-05-06 01:36:00,
2013-05-05 20:51:00,60.6,46.0,30.86,WNW,292,0.0,-999.0,58,-99.99,,,0.00,weatherlink.com 1.10,2013-05-06 01:51:00,
2013-05-05 21:11:00,58.8,45.0,30.87,WNW,292,0.0,-999.0,61,-99.99,,,0.00,weatherlink.com 1.10,2013-05-06 02:11:00,
2013-05-05 21:21:00,57.1,44.0,30.87,WNW,292,0.0,-999.0,62,-99.99,,,0.00,weatherlink.com 1.10,2013-05-06 02:21:00,
2013-05-05 21:36:00,56.3,44.0,30.87,WNW,292,0.0,-999.0,64,-99.99,,,0.00,weatherlink.com 1.10,2013-05-06 02:36:00,
2013-05-05 21:51:00,56.8,45.0,30.88,WNW,292,0.0,-999.0,65,-99.99,,,0.00,weatherlink.com 1.10,2013-05-06 02:51:00,
2013-05-05 22:11:00,57.5,45.0,30.88,WNW,292,0.0,-999.0,63,-99.99,,,0.00,weatherlink.com 1.10,2013-05-06 03:11:00,
2013-05-05 22:21:00,57.8,45.0,30.88,WNW,292,0.0,-999.0,63,-99.99,,,0.00,weatherlink.com 1.10,2013-05-06 03:21:00,
2013-05-05 22:36:00,58.1,45.0,30.89,WNW,292,0.0,-999.0,61,-99.99,,,0.00,weatherlink.com 1.10,2013-05-06 03:36:00,
2013-05-05 22:51:00,58.0,44.0,30.89,WNW,292,0.0,-999.0,61,-99.99,,,0.00,weatherlink.com 1.10,2013-05-06 03:51:00,
2013-05-05 23:11:00,57.3,44.0,30.89,WNW,291,0.0,-999.0,62,-99.99,,,0.00,weatherlink.com 1.10,2013-05-06 04:11:00,
2013-05-05 23:20:00,56.7,44.0,30.89,WNW,293,0.0,-999.0,63,-99.99,,,0.00,weatherlink.com 1.10,2013-05-06 04:20:00,
2013-05-05 23:35:00,57.0,44.0,30.89,NNW,331,0.0,-999.0,63,-99.99,,,0.00,weatherlink.com 1.10,2013-05-06 04:35:00,
2013-05-05 23:50:00,56.9,44.0,30.89,NNW,331,0.0,-999.0,63,-99.99,,,0.00,weatherlink.com 1.10,2013-05-06 04:50:00,